Stations météo

réclame
Mon MeteoGroup
Greifswald, Allemagne (10184): Température de l'air & dewpoint: 13.03.2019 03:00:00 - 19.03.2019 03:00:00 (CET)Greifswald, Allemagne (10184): Température de l'air 5cm & Température de l'air -5cm: 13.03.2019 03:00:00 - 19.03.2019 03:00:00 (CET)Greifswald, Allemagne (10184): Température de l'air -20cm & Température de l'air -100cm: 13.03.2019 03:00:00 - 19.03.2019 03:00:00 (CET)Greifswald, Allemagne (10184): Vitesse du vent & gusts: 13.03.2019 03:00:00 - 19.03.2019 03:00:00 (CET)Greifswald, Allemagne (10184): Direction du vent: 13.03.2019 03:00:00 - 19.03.2019 03:00:00 (CET)Greifswald, Allemagne (10184): reduced air pressure: 13.03.2019 03:00:00 - 19.03.2019 03:00:00 (CET)Greifswald, Allemagne (10184): visibility: 13.03.2019 03:00:00 - 19.03.2019 03:00:00 (CET)Greifswald, Allemagne (10184): Ensoleillement: 13.03.2019 03:00:00 - 19.03.2019 03:00:00 (CET)Greifswald, Allemagne (10184): Quantités de précipitations: 13.03.2019 03:00:00 - 19.03.2019 03:00:00 (CET)
Date & Time tt [°C] td [°C] tt 5cm [°C] tt -5cm [°C] tt -20cm [°C] tt -100cm [°C] ff [km/h] ff [knt] fx [km/h] fx [knt] dd ppp [hPa] vv [km] sd [min] rr [mm]
19.03.2019 03:00:00 2,7 1,0 1,0 2,7 4,9 6,3 10 5 20 11 SW 1017,4 15 0 0,0
19.03.2019 02:00:00 3,9 1,7 2,1 3,4 5,1 6,3 13 7 25 14 W 1016,6 15 0 0,0
19.03.2019 01:00:00 4,6 2,0 3,8 3,8 5,2 6,3 16 8 30 16 W 1015,6 15 0 0,0
19.03.2019 00:00:00 4,8 1,9 4,0 3,8 5,3 6,3 19 10 31 17 W 1015,1 15 0 0,0
18.03.2019 23:00:00 4,7 2,0 3,4 3,7 5,5 6,3 16 9 28 15 W 1014,5 15 0 0,0
18.03.2019 22:00:00 4,3 1,3 2,9 3,9 5,8 6,2 15 8 28 15 W 1013,5 25 0 0,0
18.03.2019 21:00:00 3,6 1,5 2,0 4,3 6,0 6,2 16 9 24 13 WSW 1012,4 40 0 0,0
18.03.2019 20:00:00 3,2 1,7 2,5 5,0 6,3 6,2 16 8 45 25 W 1011,4 15 0 0,6
18.03.2019 19:00:00 6,2 0,7 5,5 5,5 6,5 6,2 27 15 45 24 W 1010,1 30 0 0,0
18.03.2019 18:00:00 6,6 1,0 5,8 6,5 6,6 6,2 28 15 45 24 W 1008,8 22 0 0,0
18.03.2019 17:00:00 6,9 1,7 6,6 7,1 6,6 6,2 26 14 49 27 W 1007,8 22 0 0,0
18.03.2019 16:00:00 6,9 1,5 6,4 7,8 6,5 6,2 29 16 54 29 W 1006,8 24 13 0,0
18.03.2019 15:00:00 7,5 2,1 7,4 8,5 6,2 6,2 34 18 52 28 W 1005,8 25 26 0,0
18.03.2019 14:00:00 5,1 2,5 4,6 7,9 5,9 6,2 29 16 67 36 W 1005,5 30 13 0,6
18.03.2019 13:00:00 7,8 2,3 7,9 7,8 5,5 6,2 29 16 61 33 WSW 1004,5 22 31 0,0
18.03.2019 12:00:00 6,9 1,5 7,2 6,3 5,2 6,2 23 12 56 30 WSW 1004,0 29 2 0,0
18.03.2019 11:00:00 6,5 2,0 7,2 5,8 5,0 6,2 29 16 54 29 WSW 1003,6 18 2 0,0
18.03.2019 10:00:00 5,9 1,5 5,8 5,3 4,8 6,2 30 16 57 31 WSW 1003,1 29 0 0,0
18.03.2019 09:00:00 5,8 1,3 6,0 4,9 4,7 6,2 29 16 51 27 SW 1002,2 26 4 0,0
18.03.2019 08:00:00 5,3 1,0 5,2 3,9 4,7 6,2 27 14 55 30 SW 1001,8 32 10 0,0
18.03.2019 07:00:00 4,9 0,8 4,4 3,5 4,7 6,2 22 12 46 25 SW 1001,5 33 0 0,0
18.03.2019 06:00:00 5,0 0,4 4,4 3,4 4,8 6,2 21 11 40 21 SW 1001,3 35 0 0,0
18.03.2019 05:00:00 5,0 0,3 4,4 3,4 4,8 6,2 22 12 46 25 SW 1001,2 35 0 0,0
18.03.2019 04:00:00 4,8 0,0 4,2 3,2 4,9 6,2 21 11 46 25 SW 1000,9 35 0 0,0
18.03.2019 03:00:00 4,6 0,1 3,9 3,0 5,1 6,2 23 12 49 26 SW 1001,0 40 0 0,0
18.03.2019 02:00:00 4,4 0,0 3,1 2,9 5,3 6,2 24 13 48 26 SW 1001,0 40 0 0,0
18.03.2019 01:00:00 4,4 0,4 2,9 3,2 5,6 6,2 17 9 41 22 SSW 1001,2 45 0 0,0
18.03.2019 00:00:00 4,9 0,8 3,5 3,6 5,9 6,2 19 10 39 21 SW 1001,0 40 0 0,0
17.03.2019 23:00:00 5,1 1,7 3,6 3,9 6,2 6,2 19 10 35 19 SW 1000,6 40 0 0,0
17.03.2019 22:00:00 5,0 2,2 3,4 4,2 6,5 6,2 17 9 32 18 SW 1000,5 35 0 0,0
17.03.2019 21:00:00 5,3 1,9 3,8 4,7 6,8 6,1 16 9 31 17 SW 1000,4 40 0 0,0
17.03.2019 20:00:00 5,5 2,2 4,2 5,5 7,1 6,1 16 9 35 19 WSW 1000,0 40 0 0,0
17.03.2019 19:00:00 6,5 1,9 5,1 6,5 7,4 6,1 14 8 30 16 SW 999,1 45 0 0,0
17.03.2019 18:00:00 6,6 1,9 5,8 7,3 7,5 6,1 14 8 52 28 SW 998,5 40 0 0,0
17.03.2019 17:00:00 8,5 2,5 7,9 8,4 7,4 6,1 18 10 39 21 WSW 997,9 27 12 0,0
17.03.2019 16:00:00 8,3 3,5 8,3 8,3 7,4 6,1 15 8 38 21 WSW 997,0 32 0 0,0
17.03.2019 15:00:00 8,1 3,4 7,9 8,4 7,4 6,1 21 11 36 19 WSW 997,1 34 0 0,0
17.03.2019 14:00:00 7,8 3,9 7,9 8,3 7,4 6,1 19 10 34 19 WSW 996,3 38 0 0,0
17.03.2019 13:00:00 7,0 3,9 6,3 8,1 7,4 6,1 19 11 48 26 WSW 995,9 25 0 0,0
17.03.2019 12:00:00 8,0 4,5 6,7 9,3 7,1 6,1 27 15 58 32 W 994,8 49 0 0,1
17.03.2019 11:00:00 11,6 5,2 12,3 9,3 6,8 6,1 23 12 43 23 SSW 993,7 37 6 0,0
17.03.2019 10:00:00 10,8 4,8 11,1 8,2 6,6 6,1 24 13 44 24 SSW 993,8 33 0 0,0
17.03.2019 09:00:00 10,3 4,5 9,8 7,6 6,4 6,1 24 13 50 27 SSW 993,8 35 3 0,0
17.03.2019 08:00:00 9,7 4,5 9,2 6,8 6,4 6,1 18 10 48 26 SSW 993,6 37 0 0,0
17.03.2019 07:00:00 9,4 4,5 8,7 6,5 6,4 6,1 21 11 49 26 SSW 993,8 32 0 0,0
17.03.2019 06:00:00 9,2 4,6 8,1 6,4 6,4 6,1 24 13 40 22 SSW 994,1 32 0 0,0
17.03.2019 05:00:00 9,1 4,9 8,3 6,4 6,4 6,1 18 10 39 21 SSW 994,6 33 0 0,0
17.03.2019 04:00:00 9,5 5,1 8,6 6,6 6,4 6,1 19 10 41 22 SSW 995,2 30 0 0,0
17.03.2019 03:00:00 8,9 5,5 8,2 6,6 6,4 6,1 18 10 41 22 S 995,8 23 0 0,0
17.03.2019 02:00:00 8,9 5,5 8,2 6,6 6,4 6,1 16 9 32 17 SSW 996,4 23 0 0,0
17.03.2019 01:00:00 9,1 5,8 8,3 6,6 6,3 6,1 17 9 42 23 SSW 997,0 23 0 0,0
17.03.2019 00:00:00 9,0 6,3 8,1 6,5 6,3 6,1 18 10 33 18 SW 997,7 15 0 0,0
16.03.2019 23:00:00 8,1 7,0 7,3 6,2 6,3 6,1 15 8 30 16 SSW 998,3 10 0 0,1
16.03.2019 22:00:00 6,7 6,1 6,1 5,9 6,4 6,1 16 8 26 14 SSW 998,7 5 0 0,7
16.03.2019 21:00:00 5,3 4,7 4,9 5,8 6,6 6,1 16 9 34 19 S 999,3 4,5 0 0,8
16.03.2019 20:00:00 4,6 3,7 4,1 5,9 6,8 6,1 16 8 34 18 S 999,7 9 0 0,5
16.03.2019 19:00:00 4,2 3,2 3,8 6,3 7,0 6,1 12 7 28 15 S 1000,8 9 0 0,6
16.03.2019 18:00:00 4,5 3,2 4,1 6,8 7,2 6,1 11 6 29 16 S 1001,7 8 0 0,6
16.03.2019 17:00:00 5,1 2,6 4,3 7,4 7,3 6,1 12 7 31 17 SSW 1002,5 10 0 0,3
16.03.2019 16:00:00 6,4 1,2 5,3 8,3 7,4 6,1 18 10 33 18 SW 1002,9 20 0 0,0
16.03.2019 15:00:00 8,3 1,5 8,2 9,3 7,2 6,1 17 9 34 19 SW 1002,8 30 0 0,0
16.03.2019 14:00:00 8,9 1,4 9,6 9,8 6,9 6,0 18 10 36 19 WSW 1003,1 40 0 0,0
16.03.2019 13:00:00 8,9 1,2 9,8 10,2 6,4 6,0 21 12 45 25 W 1003,3 35 30 0,0
16.03.2019 12:00:00 9,4 1,2 11,4 9,6 5,8 6,0 27 15 45 24 W 1003,4 30 48 0,0
16.03.2019 11:00:00 8,4 1,3 10,0 8,0 5,4 6,0 26 14 51 27 W 1003,2 30 35 0,0
16.03.2019 10:00:00 7,4 2,0 7,9 6,3 5,1 6,0 24 13 43 23 W 1002,8 30 9 0,0
16.03.2019 09:00:00 6,6 2,4 6,8 5,2 5,0 6,0 24 13 42 23 W 1002,7 30 0 0,0
16.03.2019 08:00:00 6,1 2,0 5,8 4,4 5,1 6,0 23 12 40 22 W 1002,0 25 1 0,0
16.03.2019 07:00:00 5,4 1,8 4,4 3,9 5,1 6,0 28 15 46 25 W 1001,1 20 0 0,0
16.03.2019 06:00:00 5,8 1,9 5,1 4,1 5,2 6,0 29 16 48 26 W 1000,1 23 0 0,0
16.03.2019 05:00:00 5,6 1,8 4,8 4,1 5,4 6,0 30 16 53 28 W 999,4 22 0 0,0
16.03.2019 04:00:00 5,6 1,4 4,9 4,2 5,5 6,0 36 19 61 33 W 998,3 30 0 0,0
16.03.2019 03:00:00 5,7 1,2 4,6 4,5 5,6 6,0 38 20 68 37 W 997,1 28 0 0,0
16.03.2019 02:00:00 6,2 1,2 5,6 4,8 5,8 6,0 42 23 82 45 W 996,0 25 0 0,0
16.03.2019 01:00:00 6,4 1,3 5,9 4,9 5,9 6,0 45 24 77 42 W 994,6 26 0 0,0
16.03.2019 00:00:00 6,7 1,5 6,2 5,1 6,0 6,0 49 26 88 47 W 993,1 22 0 0,0
15.03.2019 23:00:00 6,8 1,6 6,2 5,2 6,1 6,0 48 26 84 45 W 991,5 30 0 0,0
15.03.2019 22:00:00 6,8 1,5 6,3 5,4 6,3 6,0 47 25 94 51 W 990,1 30 0 0,0
15.03.2019 21:00:00 7,4 1,3 6,6 5,5 6,5 6,0 45 25 70 38 W 988,9 25 0 0,0
15.03.2019 20:00:00 7,6 1,4 6,6 5,8 6,7 6,0 41 22 78 42 W 988,9 26 0 0,0
15.03.2019 19:00:00 8,0 2,2 7,1 6,4 6,9 6,0 37 20 65 35 W 988,8 25 0 0,0
15.03.2019 18:00:00 8,5 4,6 7,5 7,2 7,0 6,0 32 17 58 31 W 988,8 35 0 0,0
15.03.2019 17:00:00 7,7 5,9 7,0 7,5 7,0 6,0 22 12 51 28 SW 989,0 40 0 0,4
15.03.2019 16:00:00 6,6 5,6 6,2 7,9 7,0 6,0 25 13 41 22 SSW 990,3 3,0 0 1,8
15.03.2019 15:00:00 7,7 4,2 6,4 8,7 6,9 6,0 19 11 40 22 SSW 992,2 8 0 0,1
15.03.2019 14:00:00 8,7 3,5 9,2 9,3 6,6 6,0 20 11 44 24 SSW 994,0 22 0 0,0
15.03.2019 13:00:00 8,4 3,4 8,9 8,9 6,2 6,0 18 10 38 20 SW 995,4 26 0 0,0
15.03.2019 12:00:00 7,9 3,7 8,3 8,6 5,8 6,0 17 9 33 18 WSW 996,5 35 9 0,0
15.03.2019 11:00:00 7,0 3,5 8,1 7,3 5,6 6,0 20 11 39 21 W 997,2 35 2 0,0
15.03.2019 10:00:00 6,6 3,2 7,1 6,4 5,4 6,0 21 11 41 22 W 997,1 40 2 0,0
15.03.2019 09:00:00 5,8 2,3 6,0 5,4 5,3 6,0 28 15 46 25 WNW 996,8 38 16 0,0
15.03.2019 08:00:00 5,1 2,7 4,7 5,0 5,3 6,0 31 17 45 24 W 996,4 38 0 0,1
15.03.2019 07:00:00 5,2 3,7 4,5 5,0 5,4 6,0 27 15 46 25 W 995,8 22 0 0,2
15.03.2019 06:00:00 5,5 4,4 4,8 5,0 5,4 6,0 22 12 35 19 W 994,7 15 0 0,2
15.03.2019 05:00:00 5,3 4,4 4,8 5,0 5,4 6,0 20 11 33 18 W 993,7 15 0 0,3
15.03.2019 04:00:00 5,6 4,2 4,8 5,0 5,4 6,0 19 11 36 19 WSW 993,1 9 0 0,0
15.03.2019 03:00:00 5,7 4,2 4,9 5,0 5,5 6,0 19 10 31 17 W 992,6 30 0 0,1
15.03.2019 02:00:00 5,8 4,2 4,9 5,0 5,5 6,0 21 12 31 17 W 992,3 11 0 0,0
15.03.2019 01:00:00 5,2 4,4 4,6 5,0 5,6 6,0 13 7 22 12 WSW 992,0 13 0 0,2
15.03.2019 00:00:00 4,7 3,9 4,2 5,0 5,7 6,0 10 6 22 12 SW 991,5 4,0 0 0,5
14.03.2019 23:00:00 4,7 3,2 3,9 5,1 5,8 5,9 11 6 22 12 SW 991,0 10 0 0,2
14.03.2019 22:00:00 5,0 3,5 4,3 5,3 6,0 5,9 11 6 21 11 SSW 990,6 9 0 0,1
14.03.2019 21:00:00 5,1 3,4 4,4 5,4 6,1 5,9 11 6 20 11 S 990,2 20 0 0,0
14.03.2019 20:00:00 5,2 3,5 4,5 5,7 6,2 5,9 8 5 21 12 S 990,1 24 0 0,0
14.03.2019 19:00:00 5,4 3,0 4,7 6,0 6,4 5,9 16 9 32 17 S 990,1 38 0 0,0
14.03.2019 18:00:00 5,7 3,5 4,7 6,7 6,4 5,9 16 9 38 20 S 990,3 24 0 0,0
14.03.2019 17:00:00 5,9 3,7 5,2 7,2 6,4 5,9 22 12 39 21 SSW 990,9 15 0 0,0
14.03.2019 16:00:00 6,2 4,1 5,7 7,6 6,3 5,9 19 10 40 22 SSW 991,7 14 0 0,2
14.03.2019 15:00:00 6,5 3,8 5,9 7,9 6,2 5,9 18 10 40 22 SSW 992,9 9 0 0,0
14.03.2019 14:00:00 7,4 3,6 7,1 8,1 5,9 5,9 16 9 37 20 SSW 993,9 19 0 0,1
14.03.2019 13:00:00 7,7 4,3 8,2 7,6 5,6 5,9 19 11 37 20 SW 994,9 20 4 0,5
14.03.2019 12:00:00 6,6 4,4 6,2 6,7 5,4 5,9 16 8 36 19 SSW 996,1 12 0 0,7
14.03.2019 11:00:00 7,2 3,4 7,0 6,5 5,2 5,9 18 10 33 18 SW 996,9 22 1 0,0
14.03.2019 10:00:00 6,4 3,1 6,7 6,0 5,0 5,9 16 9 36 19 SW 997,7 19 3 0,0
14.03.2019 09:00:00 6,1 2,7 6,7 5,1 5,0 5,9 21 11 37 20 WSW 998,0 17 42 0,0
14.03.2019 08:00:00 5,1 1,9 5,2 4,1 5,0 5,9 19 10 35 19 WSW 998,3 20 34 0,0
14.03.2019 07:00:00 5,2 1,6 4,3 4,2 5,1 5,9 26 14 41 22 W 998,0 22 0 0,0
14.03.2019 06:00:00 5,3 1,6 4,4 4,4 5,2 5,9 23 12 51 28 W 997,6 23 0 0,0
14.03.2019 05:00:00 5,2 2,8 4,2 4,8 5,3 5,9 29 15 50 27 W 996,8 17 0 0,1
14.03.2019 04:00:00 5,6 3,2 4,9 4,9 5,4 5,9 31 17 48 26 W 995,9 28 0 0,1
14.03.2019 03:00:00 5,5 3,9 4,7 5,1 5,4 5,9 26 14 42 23 W 994,9 5 0 0,5
14.03.2019 02:00:00 5,7 4,2 4,9 5,1 5,5 5,9 19 10 36 20 W 994,1 6 0 0,1
14.03.2019 01:00:00 5,7 4,2 4,9 5,1 5,5 6,0 17 9 35 19 SW 993,6 24 0 0,1
14.03.2019 00:00:00 5,6 3,7 4,6 5,1 5,6 6,0 20 11 42 23 SW 993,5 8 0 0,4
13.03.2019 23:00:00 6,1 3,3 5,0 5,2 5,7 6,0 22 12 42 23 SSW 993,6 12 0 0,0
13.03.2019 22:00:00 6,2 3,1 5,3 5,3 5,8 6,0 23 12 45 24 SSW 994,2 30 0 0,0
13.03.2019 21:00:00 6,1 3,3 5,1 5,4 5,9 6,0 21 12 43 23 SSW 994,8 13 0 0,0
13.03.2019 20:00:00 6,2 2,8 5,4 5,5 6,1 6,0 23 13 48 26 SSW 995,3 40 0 0,0
13.03.2019 19:00:00 7,3 2,5 6,6 6,0 6,2 6,0 24 13 51 28 SSW 995,7 45 0 0,0
13.03.2019 18:00:00 8,0 2,0 7,1 6,6 6,3 6,0 23 13 49 27 SSW 995,8 42 0 0,0
13.03.2019 17:00:00 8,5 1,3 7,8 7,4 6,3 6,0 29 15 61 33 SSW 996,2 40 26 0,0
13.03.2019 16:00:00 9,2 1,0 9,5 7,9 6,2 6,0 29 16 61 33 SSW 996,5 40 9 0,0
13.03.2019 15:00:00 8,9 0,9 8,5 8,2 6,0 6,0 24 13 53 29 SSW 997,0 40 2 0,0
13.03.2019 14:00:00 9,4 0,7 10,0 8,4 5,6 6,0 26 14 60 32 SW 997,2 30 5 0,0
13.03.2019 13:00:00 8,9 0,6 9,5 8,3 5,3 6,0 22 12 59 32 SSW 997,7 35 26 0,0
13.03.2019 12:00:00 8,2 0,5 8,5 7,5 4,9 6,0 26 14 55 30 SW 998,3 30 12 0,0
13.03.2019 11:00:00 7,5 0,5 7,8 6,7 4,5 6,0 28 15 55 30 SSW 998,2 30 14 0,0
13.03.2019 10:00:00 7,2 0,7 8,6 5,1 4,3 6,0 26 14 52 28 SW 998,7 30 7 0,0
13.03.2019 09:00:00 6,2 0,5 6,3 4,3 4,2 6,0 25 14 46 25 SSW 998,6 30 49 0,0
13.03.2019 08:00:00 5,2 0,1 5,0 3,2 4,3 6,0 14 7 36 19 SSW 998,5 30 39 0,0
13.03.2019 07:00:00 4,7 0,6 3,1 3,6 4,4 6,0 20 11 38 20 WSW 998,3 32 0 0,0
13.03.2019 06:00:00 5,0 2,3 3,7 3,9 4,4 6,0 19 10 42 23 WSW 997,8 28 0 0,1
13.03.2019 05:00:00 5,4 2,5 4,0 4,0 4,4 6,0 23 12 41 22 WSW 996,7 32 0 0,2
13.03.2019 04:00:00 5,7 1,7 3,9 3,9 4,4 6,0 21 11 44 24 SSW 995,7 18 0 0,2
13.03.2019 03:00:00 6,4 0,4 5,3 3,9 4,5 6,0 14 7 38 20 S 996,2 45 0 0,0

tt = Température de l'air
td = dewpoint
tt 5cm = Température de l'air 5cm
tt -5cm = Température de l'air -5cm
tt -20cm = Température de l'air -20cm
tt -100cm = Température de l'air -100cm
ff = Vitesse du vent
fx = gusts
dd = Direction du vent
ppp = reduced air pressure
vv = visibility
sd = Ensoleillement
rr = Quantités de précipitations

stations d'obs. à proximité